Location: Mentone
(34.5413°N, 85.5351°W)
Time: 13:17:59
(UTC-05:00)

Vanguard 2 Rocket - Visible Passes

Search period start: 01 October 2014 00:00
Search period end: 11 October 2014 00:00
Orbit: 553 x 3336 km, 32.9° (Epoch: 30 September)

Date Brightness Start Highest point End Pass type
(mag) Time Alt. Az. Time Alt. Az. Time Alt. Az.
01 Oct 10.5 05:41:49 10° SSE 05:48:22 16° SE 05:56:36 10° E visible
03 Oct 10.1 05:55:16 10° S 06:03:41 26° SE 06:15:46 10° E visible
04 Oct 10.2 05:00:16 10° SSE 05:05:20 15° SE 05:11:40 10° E visible
05 Oct 9.8 06:10:08 10° SSW 06:19:12 37° SE 06:33:28 10° E visible
06 Oct 9.8 05:13:41 10° S 05:20:42 24° SE 05:30:54 10° E visible
07 Oct 10.0 04:19:08 10° SSE 04:22:38 13° SE 04:26:47 10° ESE visible
08 Oct 9.5 05:28:38 10° SSW 05:36:15 35° SE 05:48:35 10° E visible
09 Oct 9.5 04:32:19 10° S 04:38:03 22° SE 04:46:17 10° E visible
10 Oct 9.7 03:38:50 10° SE 03:40:11 10° SE 03:41:38 10° ESE visible
10 Oct 9.0 05:44:18 10° SW 05:52:07 48° SSE 06:05:40 10° E visible
